Location: DaVinci Observatory
(43.1080°N, 78.6453°W)
Time: 17:19:58
(UTC-04:00)

Vanguard 1 Rocket - All Passes

Search period start: 20 June 2018 00:00
Search period end: 30 June 2018 00:00
Orbit: 653 x 4224 km, 34.3° (Epoch: 19 June)

Date Brightness Start Highest point End Pass type
(mag) Time Alt. Az. Time Alt. Az. Time Alt. Az.
20 Jun - 00:19:24 10° WSW 00:26:54 22° SSW 00:38:11 10° SSE visible
20 Jun - 18:20:36 10° SW 18:24:34 28° SSE 18:29:52 10° ESE daylight
20 Jun - 20:43:42 10° WSW 20:49:03 39° S 20:58:07 10° ESE daylight
20 Jun - 23:08:03 10° WSW 23:14:55 27° SSW 23:26:02 10° SSE visible
21 Jun - 01:40:29 10° SW 01:42:18 10° SSW 01:44:14 10° SSW visible
21 Jun - 17:11:04 10° SSW 17:14:10 19° SSE 17:17:39 10° ESE daylight
21 Jun - 19:33:38 10° WSW 19:38:13 37° S 19:45:15 10° ESE daylight
21 Jun - 21:57:24 10° WSW 22:03:20 31° SSW 22:13:18 10° SE visible
22 Jun - 00:24:14 10° WSW 00:29:59 16° SSW 00:37:40 10° S visible
22 Jun - 16:02:43 10° SSE 16:03:44 11° SSE 16:04:45 10° SE daylight
22 Jun - 18:23:38 10° SW 18:27:38 31° SSE 18:32:54 10° ESE daylight
22 Jun - 20:47:04 10° WSW 20:52:11 34° S 21:00:30 10° SE daylight
22 Jun - 23:12:07 10° WSW 23:18:02 20° SSW 23:26:48 10° SSE visible
23 Jun - 17:13:42 10° SW 17:17:11 22° SSE 17:21:02 10° ESE daylight
23 Jun - 19:36:54 10° WSW 19:41:20 34° S 19:47:58 10° ESE daylight
23 Jun - 22:01:05 10° WSW 22:06:29 25° SSW 22:14:54 10° SSE visible
24 Jun - 16:04:03 10° SSW 16:06:43 15° SSE 16:09:18 10° ESE daylight
24 Jun - 18:26:45 10° WSW 18:30:43 31° S 18:35:53 10° ESE daylight
24 Jun - 20:50:32 10° WSW 20:55:19 28° S 21:02:41 10° SE daylight
24 Jun - 23:16:57 10° SW 23:21:11 14° SSW 23:26:39 10° S visible
25 Jun - 17:16:33 10° SW 17:20:15 26° SSE 17:24:17 10° ESE daylight
25 Jun - 19:40:13 10° WSW 19:44:28 30° S 19:50:34 10° SE daylight
25 Jun - 22:05:07 10° WSW 22:09:40 18° SSW 22:16:02 10° SSE visible
26 Jun - 16:06:20 10° SSW 16:09:46 20° SSE 16:12:59 10° ESE daylight
26 Jun - 18:29:56 10° WSW 18:33:51 30° S 18:38:47 10° ESE daylight
26 Jun - 20:54:13 10° WSW 20:58:29 22° SSW 21:04:36 10° SSE daylight
27 Jun - 14:56:18 10° SSW 14:59:09 14° SSE 15:01:40 10° SE daylight
27 Jun - 17:19:31 10° SW 17:23:21 28° S 17:27:26 10° ESE daylight
27 Jun - 19:43:40 10° WSW 19:47:37 25° S 19:53:01 10° SE daylight
27 Jun - 22:10:07 10° SW 22:12:51 12° SSW 22:16:06 10° S visible
28 Jun - 13:47:42 10° SSE 13:48:19 10° SSE 13:48:55 10° SSE daylight
28 Jun - 16:08:55 10° SW 16:12:52 24° S 16:16:26 10° ESE daylight
28 Jun - 18:33:11 10° WSW 18:36:58 28° S 18:41:36 10° SE daylight
28 Jun - 20:58:15 10° SW 21:01:40 16° SSW 21:06:03 10° SSE daylight
29 Jun - 14:58:11 10° SSW 15:02:16 19° SSE 15:05:35 10° ESE daylight
29 Jun - 17:22:34 10° WSW 17:26:28 28° S 17:30:31 10° ESE daylight
29 Jun - 19:47:17 10° WSW 19:50:45 20° SSW 19:55:12 10° SSE daylight
